Flag for Germany Weather past 2 weeks in Friesoythe, Lower Saxony, Germany

Now
66 °F

Scattered clouds.


Feels Like: 66 °F
Forecast: 50 / 71 °F
Wind: 8 mph from Northeast

Location: Meppen-Mil

Current Time: Sep 2, 2014 at 3:32:44 PM

Latest Report: Sep 2, 2014 at 2:20 PM


Visibility: N/A

Pressure: 30.21 "Hg

Humidity: 73%

Dew point: 57 °F

Location of FriesoytheLocation

Historic Weather in Friesoythe — Graph

°F

Friesoythe temperature yesterday

Maximum temperature yesterday: 66 °F (at 12:20 PM)
Minimum temperature yesterday: 50 °F (at 4:20 AM)
Average temperature yesterday: 58 °F

Past Weeks' High & Low Weather Summary

 TemperatureHumidityPressure
High73 °F (Aug 28, 4:20 PM)100% (Aug 28, 3:20 AM)30.21 "Hg (Aug 28, 3:20 AM)
Low43 °F (Aug 27, 6:20 AM)43% (Aug 26, 5:20 PM)29.59 "Hg (Aug 18, 2:20 PM)
Average57 °F79%29.93 "Hg
* Reported Aug 18 2:20 PM — Sep 2 2:20 PM, Friesoythe, Weather by CustomWeather, © 2014

Note: Actual official high and low records may vary slightly from our data, if they occured in-between our weather recording intervals... More about our weather records

Advertising

Friesoythe weather history for previous 24 hours

 ConditionsComfort  
Time TempWeatherWind HumidityBarometerVisibility
2:20 PM
Sep 2
66 °FScattered clouds.8 mph73%30.21 "HgN/A
1:20 PM66 °FScattered clouds.6 mph73%30.21 "HgN/A
12:20 PM64 °FBroken clouds.5 mph83%30.18 "HgN/A
11:20 AM63 °FBroken clouds.2 mph88%30.18 "Hg5 mi
10:20 AM63 °FBroken clouds.2 mph88%30.18 "Hg4 mi
9:20 AM59 °FFog.2 mph94%30.15 "Hg2 mi
8:20 AM57 °FFog.2 mph94%30.15 "Hg2 mi
7:50 AM57 °FFog.2 mph94%30.15 "Hg2 mi
7:20 AM57 °FFog.3 mph94%30.15 "Hg2 mi
6:20 AM54 °FPassing clouds.2 mph94%30.15 "Hg4 mi
5:20 AM54 °FCool.3 mph94%30.12 "Hg2 mi
4:20 AM52 °FCool.3 mph94%30.12 "Hg2 mi
3:20 AM52 °FCool.2 mph94%30.15 "Hg2 mi
2:20 AM54 °FCool.2 mph94%30.12 "Hg2 mi
1:20 AM54 °FCool.2 mph94%30.12 "Hg1 mi
12:20 AM54 °FCool.2 mph94%30.15 "Hg3 mi
11:20 PM
Sep 1
55 °FCool.2 mph88%30.15 "Hg3 mi
10:20 PM57 °FCool.1 mph88%30.15 "Hg4 mi
9:20 PM59 °FCool.1 mph82%30.12 "Hg4 mi
8:20 PM61 °FCool.2 mph83%30.12 "Hg4 mi
7:20 PM63 °FMild.2 mph77%30.09 "Hg4 mi
6:20 PM64 °FMild.3 mph78%30.09 "Hg4 mi
5:20 PM64 °FMild.3 mph73%30.09 "Hg4 mi
4:20 PM64 °FScattered showers. Partly sunny.3 mph73%30.09 "HgN/A
3:20 PM64 °FScattered showers. Broken clouds.2 mph73%30.09 "HgN/A
Weather by CustomWeather, © 2014

See weather overviewHow to use our weather pages